TimeCST,TemperatureF,Dew PointF,Humidity,Sea Level PressureIn,VisibilityMPH,Wind Direction,Wind SpeedMPH,Gust SpeedMPH,PrecipitationIn,Events,Conditions,WindDirDegrees,DateUTC
12:52 AM,33.1,28.0,82,30.10,10.0,SE,5.8,-,N/A,,Overcast,130,2012-12-28 06:52:00
1:52 AM,33.1,28.0,82,30.10,10.0,ESE,4.6,-,N/A,,Mostly Cloudy,120,2012-12-28 07:52:00
2:06 AM,33.8,28.4,81,30.09,10.0,ESE,3.5,-,N/A,,Scattered Clouds,120,2012-12-28 08:06:00
2:52 AM,32.0,28.0,85,30.11,10.0,Calm,Calm,-,N/A,,Partly Cloudy,0,2012-12-28 08:52:00
3:06 AM,32.0,28.4,87,30.09,10.0,SE,3.5,-,N/A,,Mostly Cloudy,130,2012-12-28 09:06:00
3:15 AM,32.0,28.4,87,30.08,10.0,ESE,3.5,-,N/A,,Scattered Clouds,120,2012-12-28 09:15:00
3:52 AM,32.0,28.9,88,30.07,10.0,ESE,4.6,-,N/A,,Mostly Cloudy,120,2012-12-28 09:52:00
4:52 AM,33.1,28.0,82,30.07,10.0,South,4.6,-,N/A,,Overcast,180,2012-12-28 10:52:00
5:52 AM,33.1,28.9,85,30.09,10.0,South,4.6,-,N/A,,Overcast,190,2012-12-28 11:52:00
6:52 AM,33.1,28.0,82,30.11,10.0,Calm,Calm,-,N/A,,Overcast,0,2012-12-28 12:52:00
8:52 AM,35.1,30.0,82,30.11,10.0,Calm,Calm,-,N/A,,Overcast,0,2012-12-28 14:52:00
9:52 AM,36.0,30.0,79,30.09,10.0,SE,3.5,-,N/A,,Overcast,130,2012-12-28 15:52:00
10:52 AM,37.9,30.9,76,30.04,10.0,East,8.1,-,N/A,,Overcast,100,2012-12-28 16:52:00
11:52 AM,37.9,30.9,76,29.99,10.0,East,6.9,-,N/A,,Overcast,100,2012-12-28 17:52:00
12:52 PM,39.9,32.0,73,29.96,10.0,East,8.1,-,N/A,,Overcast,100,2012-12-28 18:52:00
1:52 PM,39.0,33.1,79,29.94,10.0,East,5.8,-,0.00,Rain,Light Rain,100,2012-12-28 19:52:00
2:52 PM,39.0,34.0,82,29.92,7.0,ENE,5.8,-,0.01,Rain,Light Rain,70,2012-12-28 20:52:00
3:52 PM,37.9,35.1,89,29.89,5.0,ESE,9.2,-,0.03,Rain,Light Rain,110,2012-12-28 21:52:00
4:18 PM,37.4,35.6,93,29.88,4.0,ESE,8.1,-,0.02,Rain,Light Rain,110,2012-12-28 22:18:00
4:42 PM,37.4,33.8,87,29.86,3.0,ESE,10.4,-,0.05,Rain,Light Rain,110,2012-12-28 22:42:00
4:52 PM,37.0,35.1,93,29.87,5.0,ESE,9.2,-,0.06,Rain,Light Rain,120,2012-12-28 22:52:00
4:54 PM,37.4,35.6,93,29.86,5.0,ESE,10.4,-,0.00,Rain,Light Rain,110,2012-12-28 22:54:00
5:35 PM,37.4,35.6,93,29.84,7.0,ESE,8.1,-,0.00,,Overcast,110,2012-12-28 23:35:00
5:52 PM,37.0,35.1,93,29.83,6.0,East,9.2,-,0.00,Rain,Light Rain,100,2012-12-28 23:52:00
6:05 PM,37.4,35.6,93,29.80,5.0,ESE,11.5,-,0.00,Rain,Light Rain,110,2012-12-29 00:05:00
6:14 PM,37.4,35.6,93,29.80,5.0,ESE,10.4,-,0.00,Rain,Light Rain,110,2012-12-29 00:14:00
6:52 PM,37.0,35.1,93,29.80,6.0,ESE,8.1,-,0.00,,Overcast,110,2012-12-29 00:52:00
7:27 PM,37.4,35.6,93,29.78,4.0,East,4.6,-,0.04,Rain,Light Rain,100,2012-12-29 01:27:00
7:52 PM,37.0,36.0,96,29.82,3.0,NW,4.6,-,0.06,Rain,Rain,320,2012-12-29 01:52:00
8:32 PM,37.4,35.6,93,29.81,2.0,North,5.8,-,0.04,,Overcast,360,2012-12-29 02:32:00
8:52 PM,37.0,36.0,96,29.81,2.5,NNE,3.5,-,0.04,,Overcast,30,2012-12-29 02:52:00
9:50 PM,37.4,35.6,93,29.79,3.0,Calm,Calm,-,0.01,,Overcast,0,2012-12-29 03:50:00
10:52 PM,37.0,36.0,96,29.79,1.8,Calm,Calm,-,0.00,,Overcast,0,2012-12-29 04:52:00
11:18 PM,37.4,35.6,93,29.77,2.0,Calm,Calm,-,N/A,,Overcast,0,2012-12-29 05:18:00
11:52 PM,37.0,36.0,96,29.78,2.5,Calm,Calm,-,0.01,Rain,Light Rain,0,2012-12-29 05:52:00